[[{"header":{"parameterUnit":"m.s-1","parameterCategory":1,"la1":30.2991,"la2":30.254,"lo1":-89.0895,"lo2":-89.0444,"dy":0.0017,"dx":0.0017,"nx":28,"ny":28,"refTime":"2023-08-09T21:00:00:Z","depth":0,"parameterNumber":2,"parameterNumberName":"U-component_of_WINDS"},"data":[0,0,0,0,0,0,0,0,0,0,0,0,0,0,0,0,0,0,0,0,0,0,0,0,0,0,0,0,0,0,0,0,0,0,0,0,0,0,0,0,0,0,0,0,0,0,0,0,0,0,0,0,0,0,0,0,0,0,0.8396,0.8396,0,0.8401,0.8401,0.8401,0.8432,0.8432,0.8433,0.8434,0.8441,0.844,0.844,0,0,0,0,0,0,0,0,0,0,0,0,0,0.8417,0.8417,0.8396,0.8396,0.8396,0.8401,0.8401,0.8401,0.8431,0.8432,0.8433,0.8434,0.8441,0.844,0.8439,0,0,0,0,0,0,0,0,0,0,0,0,0,0.8414,0.8417,0.8396,0.8412,0.8413,0.8401,0.8401,0.8401,0.8431,0.8432,0.8433,0.8434,0.8441,0.844,0.8439,0.8412,0,0,0.8437,0.8437,0,0,0,0,0,0,0,0,0.8414,0.8413,0.8409,0.8411,0.8412,0.8417,0.8411,0.8405,0.8431,0.8424,0.8434,0.8435,0.8432,0.8432,0.843,0.8413,0.8413,0.8437,0.8437,0.8436,0.8436,0,0,0,0,0,0,0,0.8414,0.8413,0.8398,0.8409,0.8411,0.842,0.8421,0.841,0.8422,0.8425,0.8427,0.8427,0.8433,0.8431,0.8431,0.8413,0.8437,0.8436,0.8436,0.8436,0.8378,0.8377,0,0,0,0,0,0,0.8412,0.8413,0.8398,0.8398,0.8416,0.8419,0.842,0.8414,0.8422,0.8424,0.8426,0.8429,0.8432,0.8432,0.8431,0.8403,0.8436,0.8435,0.8435,0.8379,0.8377,0.8376,0,0,0,0,0,0,0.8412,0.841,0.8398,0.8406,0.8405,0.8417,0.8411,0.8414,0.8412,0.8423,0.8426,0.8422,0.8433,0.8432,0.8418,0.8403,0.8435,0.8434,0.838,0.8378,0.8377,0.8343,0,0,0,0,0,0,0.8413,0.841,0.8399,0.8406,0.8405,0.8382,0.841,0.8413,0.841,0.8413,0.842,0.8422,0.8433,0.8419,0.8417,0.8403,0.8434,0.8381,0.8379,0.8377,0.8346,0.8341,0.8337,0,0,0,0,0,0.8413,0.8389,0.8398,0.8396,0.8391,0.8381,0.8381,0.8394,0.8409,0.8399,0.8406,0.8422,0.8405,0.8417,0.8415,0.84,0.8382,0.838,0.8377,0.8348,0.8342,0.8337,0,0,0,0,0,0,0.838,0.839,0.84,0.8377,0.8378,0.8387,0.8374,0.8387,0.8384,0.8388,0.8405,0.8406,0.839,0.8393,0.8407,0.8377,0.8396,0.8393,0.8375,0.8369,0.8364,0.8364,0.8433,0,0,0,0,0,0.837,0.836,0.837,0.8349,0.8349,0.8361,0.8358,0.8368,0.837,0.8371,0.8378,0.838,0.8376,0.8372,0.8369,0.8347,0.835,0.8336,0.8331,0.8328,0.8325,0.8317,0.8312,0.8368,0.8368,0.8368,0,0,0.8349,0.8353,0.8346,0.8342,0.8344,0.8336,0.8361,0.8351,0.8346,0.837,0.8357,0.8362,0.8366,0.8348,0.8341,0.8351,0.831,0.8324,0.8321,0.8321,0.8314,0.8309,0.8304,0.8366,0.8367,0.8367,0,0,0.8307,0.8308,0.8292,0.8294,0.8297,0.8306,0.8302,0.8309,0.8314,0.8301,0.832,0.8315,0.8306,0.8309,0.8309,0.8272,0.8287,0.827,0.8246,0.8238,0.8233,0.823,0.8218,0.8214,0.8267,0.8267,0.8267,0,0.828,0.8268,0.8282,0.8271,0.827,0.8292,0.8277,0.8279,0.8281,0.828,0.8291,0.8283,0.8287,0.8272,0.8263,0.8262,0.826,0.8269,0.8233,0.8229,0.8226,0.8215,0.8211,0.8265,0.8266,0.8266,0.8266,0,0.8237,0.8228,0.8215,0.8217,0.8214,0.8201,0.8215,0.8211,0.8223,0.8231,0.8219,0.8225,0.8225,0.8222,0.8232,0.8209,0.8215,0.8229,0.825,0.8218,0.8209,0.8205,0.8263,0.8263,0.8264,0.8264,0,0,0.8172,0.8184,0.8179,0.8182,0.8188,0.8183,0.8172,0.8171,0.8169,0.817,0.8163,0.8156,0.817,0.8171,0.8182,0.8175,0.8148,0.819,0.819,0.8184,0.8126,0.8117,0.8112,0.8158,0.8157,0.8156,0.8126,0,0.8134,0.8116,0.813,0.811,0.8103,0.8125,0.8117,0.8121,0.8129,0.8126,0.8135,0.8131,0.8148,0.8149,0.8143,0.8152,0.8137,0.8155,0.8154,0.8153,0.8153,0.8106,0.8096,0.8067,0.8123,0.8122,0.8122,0,0.8086,0.8086,0.8066,0.8076,0.8074,0.8066,0.8068,0.8064,0.807,0.8077,0.8079,0.8093,0.8086,0.8105,0.8097,0.8108,0.8109,0.8114,0.8113,0.8115,0.8136,0.8108,0.8058,0.8054,0.8116,0.8116,0.8116,0,0.8044,0.8039,0.8027,0.8028,0.8039,0.8034,0.8038,0.8045,0.8045,0.8047,0.8048,0.8049,0.805,0.8052,0.8067,0.808,0.8058,0.8078,0.8065,0.8065,0.806,0.806,0.8011,0.8058,0.8058,0.8058,0.8058,0,0.8001,0.7988,0.8009,0.8001,0.7989,0.8006,0.7993,0.8,0.8007,0.8003,0.8022,0.8018,0.8037,0.8036,0.8048,0.8041,0.8041,0.8047,0.8051,0.8047,0.8046,0.8048,0.8051,0.8057,0.8057,0.8057,0.8057,0,0.7952,0.7965,0.7954,0.7966,0.7969,0.7959,0.7971,0.7966,0.7976,0.797,0.797,0.7986,0.7986,0.8001,0.8004,0.8012,0.8001,0.8007,0.7999,0.8001,0.7988,0.799,0.7939,0.7935,0.7983,0.7982,0.7982,0,0.7924,0.7915,0.7927,0.7925,0.7929,0.7926,0.7926,0.7944,0.7943,0.7951,0.7946,0.7947,0.7949,0.7948,0.7961,0.7964,0.7972,0.7954,0.7973,0.7969,0.7975,0.7975,0.7976,0.7951,0.795,0.7949,0.7949,0,0.7873,0.7881,0.788,0.7883,0.7883,0.7885,0.7889,0.7887,0.7907,0.7906,0.7906,0.7907,0.7911,0.7913,0.7919,0.7926,0.7942,0.7943,0.7941,0.7937,0.7933,0.7937,0.799,0.7944,0.7945,0.7945,0.7945,0.7946,0.7836,0.783,0.7838,0.7837,0.7842,0.7846,0.7843,0.7853,0.7853,0.7857,0.7868,0.7867,0.7877,0.7886,0.7892,0.7893,0.7902,0.7897,0.7897,0.7896,0.7894,0.7932,0.7893,0.7894,0.7894,0.7894,0.7894,0,0.7788,0.7795,0.7794,0.78,0.78,0.7814,0.782,0.782,0.7819,0.7826,0.7828,0.783,0.7833,0.7846,0.7851,0.7849,0.7857,0.785,0.7851,0.7853,0.7885,0.7887,0.7844,0.7844,0.7844,0.7844,0.7844,0.7844,0.7764,0.7755,0.7764,0.7759,0.7767,0.7766,0.7768,0.7773,0.7779,0.778,0.7783,0.7791,0.7802,0.7808,0.7812,0.7817,0.7818,0.781,0.7817,0.7846,0.7851,0.7855,0.7858,0.7809,0.7809,0.7785,0.7785,0.7785]},{"header":{"parameterUnit":"m.s-1","parameterCategory":1,"la1":30.2991,"la2":30.254,"lo1":-89.0895,"lo2":-89.0444,"dy":0.0017,"dx":0.0017,"nx":28,"ny":28,"refTime":"2023-08-09T21:00:00:Z","depth":0,"parameterNumber":3,"parameterNumberName":"V-component_of_WINDS"},"data":[0,0,0,0,0,0,0,0,0,0,0,0,0,0,0,0,0,0,0,0,0,0,0,0,0,0,0,0,0,0,0,0,0,0,0,0,0,0,0,0,0,0,0,0,0,0,0,0,0,0,0,0,0,0,0,0,0,0,4.074,4.0741,0,4.0862,4.0863,4.0865,4.0927,4.0927,4.0928,4.0928,4.1045,4.1048,4.1051,0,0,0,0,0,0,0,0,0,0,0,0,0,4.0554,4.0557,4.074,4.0741,4.0743,4.0862,4.0863,4.0865,4.0927,4.0927,4.0928,4.0928,4.1044,4.1048,4.1051,0,0,0,0,0,0,0,0,0,0,0,0,0,4.0651,4.0558,4.0739,4.0788,4.0794,4.0861,4.0864,4.0866,4.0927,4.0927,4.0928,4.0928,4.1043,4.1047,4.1052,4.1078,0,0,4.1066,4.1068,0,0,0,0,0,0,0,0,4.0645,4.0658,4.078,4.0785,4.0792,4.088,4.0841,4.0936,4.0927,4.0876,4.0928,4.0928,4.0989,4.0998,4.1021,4.1083,4.1088,4.1066,4.1069,4.1071,4.1072,0,0,0,0,0,0,0,4.0639,4.0653,4.0788,4.0781,4.0789,4.0802,4.0816,4.086,4.093,4.0881,4.0886,4.09,4.0993,4.1016,4.1024,4.109,4.1066,4.107,4.1073,4.1075,4.1181,4.1181,0,0,0,0,0,0,4.0625,4.0647,4.0784,4.0792,4.0718,4.0805,4.0821,4.0851,4.093,4.0943,4.09,4.0902,4.1008,4.1019,4.1028,4.1065,4.1071,4.1075,4.1078,4.1181,4.1181,4.1181,0,0,0,0,0,0,4.0621,4.0637,4.0779,4.0721,4.074,4.0809,4.0842,4.0853,4.0877,4.0945,4.0957,4.0911,4.1009,4.1022,4.1066,4.107,4.1077,4.1081,4.1181,4.1181,4.1181,4.1138,0,0,0,0,0,0,4.0615,4.0635,4.0647,4.0721,4.0743,4.0816,4.0842,4.0856,4.0886,4.0891,4.0959,4.097,4.101,4.1059,4.107,4.1077,4.1085,4.1181,4.1181,4.1181,4.1139,4.1137,4.1135,0,0,0,0,0,4.0608,4.0627,4.0647,4.0663,4.0759,4.0816,4.0829,4.0877,4.0886,4.0898,4.0941,4.0968,4.1068,4.1063,4.1076,4.1084,4.1181,4.1181,4.1181,4.1141,4.1137,4.1135,0,0,0,0,0,0,4.0549,4.0638,4.066,4.0705,4.0753,4.0827,4.0843,4.0871,4.0916,4.0918,4.0974,4.0988,4.1027,4.106,4.1053,4.1114,4.1127,4.113,4.1091,4.1089,4.1086,4.1078,4.1089,0,0,0,0,0,4.0542,4.0583,4.0657,4.0689,4.0712,4.0773,4.08,4.0833,4.0884,4.0904,4.0951,4.0997,4.104,4.1066,4.1108,4.1144,4.116,4.1156,4.1154,4.1152,4.1153,4.1176,4.1176,4.1182,4.1182,4.1182,0,0,4.0525,4.0579,4.0601,4.0678,4.072,4.0759,4.079,4.083,4.086,4.0909,4.0955,4.0991,4.1046,4.1087,4.1107,4.1115,4.1155,4.1152,4.1149,4.1153,4.1176,4.1176,4.1175,4.1182,4.1182,4.1182,0,0,4.0517,4.0562,4.0594,4.0636,4.0699,4.074,4.0748,4.0818,4.0845,4.0892,4.0931,4.0965,4.1037,4.1076,4.1104,4.1113,4.1139,4.1125,4.1111,4.1133,4.1133,4.1132,4.1136,4.1137,4.1126,4.1126,4.1126,0,4.0488,4.0552,4.0606,4.0646,4.0678,4.0728,4.0761,4.0798,4.087,4.0891,4.09,4.0992,4.1032,4.1084,4.1086,4.1107,4.1117,4.1117,4.1129,4.1129,4.113,4.1134,4.1135,4.1124,4.1124,4.1124,4.1125,0,4.0515,4.0558,4.0576,4.0649,4.0684,4.0719,4.0777,4.0805,4.0835,4.0875,4.0922,4.0973,4.1028,4.1042,4.1071,4.1098,4.1101,4.1118,4.1133,4.1126,4.1131,4.1133,4.1121,4.1122,4.1122,4.1123,0,0,4.0471,4.0576,4.0581,4.0616,4.069,4.0724,4.0761,4.0817,4.0841,4.0889,4.0922,4.0982,4.0999,4.1032,4.1065,4.1084,4.1089,4.11,4.1102,4.1097,4.1123,4.111,4.1111,4.1107,4.1108,4.1108,4.1119,0,4.0474,4.0547,4.0597,4.0649,4.069,4.0739,4.0772,4.082,4.0858,4.0897,4.0938,4.098,4.0999,4.102,4.1041,4.1084,4.1095,4.1084,4.1137,4.1138,4.1122,4.1114,4.11,4.1108,4.1121,4.1121,4.1122,0,4.0486,4.0537,4.0595,4.0667,4.0686,4.0715,4.0771,4.0808,4.0863,4.089,4.0928,4.0963,4.1003,4.1014,4.107,4.1061,4.1086,4.111,4.1112,4.1119,4.113,4.1121,4.1111,4.1112,4.1125,4.1125,4.1124,0,4.045,4.0533,4.0578,4.0606,4.0691,4.071,4.0746,4.0802,4.0833,4.0881,4.0902,4.0953,4.0981,4.1019,4.1067,4.107,4.1119,4.1133,4.1141,4.114,4.1149,4.1148,4.1143,4.1163,4.1163,4.1163,4.1163,0,4.0449,4.0482,4.0564,4.0592,4.063,4.0687,4.0723,4.0762,4.0812,4.0848,4.0892,4.0923,4.0984,4.1023,4.106,4.1101,4.1113,4.1135,4.1144,4.1132,4.1129,4.1148,4.1149,4.1164,4.1164,4.1163,4.1163,0,4.0415,4.0471,4.0524,4.0601,4.0621,4.0646,4.0712,4.074,4.0781,4.0825,4.0839,4.0903,4.0951,4.1003,4.1067,4.1092,4.1132,4.1145,4.1114,4.1119,4.1125,4.1124,4.1133,4.1138,4.1154,4.1153,4.1153,0,4.041,4.0438,4.0519,4.0547,4.0583,4.0627,4.0661,4.0717,4.075,4.0816,4.0836,4.0889,4.0934,4.1008,4.1059,4.1108,4.1123,4.1123,4.1131,4.1118,4.1125,4.1123,4.1126,4.1121,4.112,4.112,4.112,0,4.0396,4.0424,4.0471,4.0529,4.0568,4.0615,4.0664,4.0684,4.075,4.0784,4.0836,4.0871,4.0939,4.099,4.1046,4.1081,4.1111,4.1117,4.1122,4.1109,4.1091,4.1102,4.1108,4.1116,4.1117,4.1117,4.1117,4.1117,4.0378,4.0405,4.0468,4.0519,4.0563,4.0608,4.0639,4.0686,4.0731,4.0793,4.0823,4.0874,4.093,4.1009,4.1043,4.1084,4.1092,4.1099,4.1101,4.1101,4.1099,4.1084,4.1094,4.1094,4.1094,4.1094,4.1094,0,4.0367,4.0411,4.0458,4.0527,4.0567,4.0595,4.0651,4.0682,4.0728,4.0779,4.0824,4.0883,4.0933,4.0989,4.1042,4.1064,4.1079,4.1076,4.1075,4.1083,4.1087,4.1078,4.1063,4.1063,4.1063,4.1063,4.1063,4.1063,4.0367,4.0415,4.045,4.052,4.0562,4.0616,4.0646,4.0687,4.0728,4.0794,4.0837,4.0875,4.0927,4.0985,4.1032,4.1047,4.1065,4.1058,4.1077,4.108,4.1082,4.1085,4.1077,4.1061,4.1061,4.107,4.107,4.107]}]]